User: anonymous   Login
Location: Palmerston North
(40.3500°S, 175.6170°E)
Time: 20:12:49
(UTC+13:00)
Language:

Lacrosse 5 rocket - Orbit

View from above orbital plane
View from above orbital plane
View from above satellite
View from above satellite

Ground track
Ground track

The orbit data is extracted from the following two-line orbital elements,

1 28647U 05016B   19294.11194739  .00000071  00000-0  22589-4 0  9997
2 28647  56.9954 137.7381 0130384  70.4036 291.1023 15.05793677 23751
Epoch (UTC): 21 October 2019 02:41:12
Eccentricity: 0.0130384
inclination: 56.9954°
perigee height: 459 km
apogee height: 639 km
right ascension of ascending node: 137.7381°
argument of perigee: 70.4036°
revolutions per day: 15.05793677
mean anomaly at epoch: 291.1023°
orbit number at epoch: 2375

The dashed part of the orbit path shows where the satellite is in the earth's shadow,  

DLR